,,PressureMeas_1m,,PRMeasQMR101_1,,RHStat155_1m_1,,SRMeasQMS101R_1m,,TAStat155_1m_1,,GenWind_1,,GenWind_1,
2019-04-11, 00:00:06,VALID,917.776,VALID,0.0,VALID,98.251,VALID,0.011,VALID,19.432,VALID,3.0,VALID,0.0,
2019-04-11, 00:01:06,VALID,917.769,VALID,0.0,VALID,98.306,VALID,0.025,VALID,19.5,VALID,10.0,VALID,0.0,
2019-04-11, 00:02:06,VALID,917.752,VALID,0.0,VALID,98.252,VALID,0.017,VALID,19.534,VALID,20.0,VALID,0.0,
2019-04-11, 00:03:06,VALID,917.736,VALID,0.0,VALID,98.12,VALID,0.003,VALID,19.521,VALID,23.0,VALID,0.0,
2019-04-11, 00:04:06,VALID,917.725,VALID,0.0,VALID,98.027,VALID,0.019,VALID,19.52,VALID,23.0,VALID,0.0,
2019-04-11, 00:05:06,VALID,917.703,VALID,0.0,VALID,97.909,VALID,0.01,VALID,19.505,VALID,23.0,VALID,0.0,
2019-04-11, 00:06:06,VALID,917.7,VALID,0.0,VALID,97.878,VALID,0.008,VALID,19.517,VALID,23.0,VALID,0.0,
2019-04-11, 00:07:06,VALID,917.699,VALID,0.0,VALID,97.931,VALID,0.016,VALID,19.535,VALID,23.0,VALID,0.0,
2019-04-11, 00:08:06,VALID,917.71,VALID,0.0,VALID,97.947,VALID,0.013,VALID,19.531,VALID,23.0,VALID,0.0,
2019-04-11, 00:09:06,VALID,917.708,VALID,0.0,VALID,97.843,VALID,0.015,VALID,19.478,VALID,38.0,VALID,0.0,
2019-04-11, 00:10:06,VALID,917.723,VALID,0.0,VALID,97.753,VALID,0.024,VALID,19.43,VALID,93.0,VALID,0.0,
2019-04-11, 00:11:06,VALID,917.732,VALID,0.0,VALID,97.862,VALID,0.012,VALID,19.455,VALID,101.0,VALID,0.0,
2019-04-11, 00:12:06,VALID,917.733,VALID,0.0,VALID,97.958,VALID,-0.001,VALID,19.47,VALID,101.0,VALID,0.0,
2019-04-11, 00:13:06,VALID,917.744,VALID,0.0,VALID,97.99,VALID,0.02,VALID,19.448,VALID,101.0,VALID,0.0,
2019-04-11, 00:14:06,VALID,917.764,VALID,0.0,VALID,97.978,VALID,0.018,VALID,19.419,VALID,101.0,VALID,0.0,
2019-04-11, 00:15:06,VALID,917.782,VALID,0.0,VALID,97.87,VALID,0.006,VALID,19.339,VALID,101.0,VALID,0.0,
2019-04-11, 00:16:06,VALID,917.797,VALID,0.0,VALID,97.818,VALID,0.003,VALID,19.305,VALID,101.0,VALID,0.0,
2019-04-11, 00:17:06,VALID,917.831,VALID,0.0,VALID,97.81,VALID,-0.001,VALID,19.292,VALID,101.0,VALID,0.0,
2019-04-11, 00:18:06,VALID,917.827,VALID,0.0,VALID,97.858,VALID,-0.009,VALID,19.293,VALID,58.0,VALID,0.0,
2019-04-11, 00:19:06,VALID,917.818,VALID,0.0,VALID,98.042,VALID,-0.007,VALID,19.384,VALID,347.0,VALID,0.0,
2019-04-11, 00:20:06,VALID,917.817,VALID,0.0,VALID,98.287,VALID,-0.011,VALID,19.486,VALID,344.0,VALID,0.0,
2019-04-11, 00:21:06,VALID,917.801,VALID,0.0,VALID,98.249,VALID,-0.007,VALID,19.474,VALID,331.0,VALID,0.0,
2019-04-11, 00:22:06,VALID,917.809,VALID,0.0,VALID,98.292,VALID,-0.017,VALID,19.485,VALID,310.0,VALID,0.0,
2019-04-11, 00:23:06,VALID,917.781,VALID,0.0,VALID,98.282,VALID,-0.004,VALID,19.481,VALID,332.0,VALID,0.0,
2019-04-11, 00:24:06,VALID,917.762,VALID,0.0,VALID,98.339,VALID,0.004,VALID,19.505,VALID,348.0,VALID,0.0,
2019-04-11, 00:25:06,VALID,917.772,VALID,0.0,VALID,98.308,VALID,-0.011,VALID,19.496,VALID,7.0,VALID,0.0,
2019-04-11, 00:26:06,VALID,917.755,VALID,0.0,VALID,98.258,VALID,-0.014,VALID,19.461,VALID,7.0,VALID,0.0,
2019-04-11, 00:27:06,VALID,917.776,VALID,0.0,VALID,98.225,VALID,-0.001,VALID,19.442,VALID,7.0,VALID,0.0,
2019-04-11, 00:28:06,VALID,917.753,VALID,0.0,VALID,98.244,VALID,0.006,VALID,19.457,VALID,7.0,VALID,0.0,
2019-04-11, 00:29:06,VALID,917.748,VALID,0.0,VALID,98.257,VALID,0.002,VALID,19.464,VALID,7.0,VALID,0.0,
2019-04-11, 00:30:06,VALID,917.767,VALID,0.0,VALID,98.279,VALID,-0.014,VALID,19.473,VALID,7.0,VALID,0.0,
2019-04-11, 00:31:06,VALID,917.754,VALID,0.0,VALID,98.284,VALID,-0.022,VALID,19.496,VALID,7.0,VALID,0.0,
2019-04-11, 00:32:06,VALID,917.732,VALID,0.0,VALID,98.286,VALID,-0.004,VALID,19.482,VALID,7.0,VALID,0.0,
2019-04-11, 00:33:06,VALID,917.698,VALID,0.0,VALID,98.252,VALID,-0.005,VALID,19.46,VALID,48.0,VALID,0.0,
2019-04-11, 00:34:06,VALID,917.713,VALID,0.0,VALID,98.14,VALID,0.001,VALID,19.398,VALID,61.0,VALID,0.0,
2019-04-11, 00:35:06,VALID,917.724,VALID,0.0,VALID,98.073,VALID,0.01,VALID,19.353,VALID,79.0,VALID,0.0,
2019-04-11, 00:36:06,VALID,917.738,VALID,0.0,VALID,98.098,VALID,-0.013,VALID,19.337,VALID,119.0,VALID,0.0,
2019-04-11, 00:37:06,VALID,917.729,VALID,0.0,VALID,98.082,VALID,-0.016,VALID,19.314,VALID,125.0,VALID,0.0,
2019-04-11, 00:38:06,VALID,917.727,VALID,0.0,VALID,98.114,VALID,-0.006,VALID,19.285,VALID,128.0,VALID,0.0,
2019-04-11, 00:39:06,VALID,917.732,VALID,0.0,VALID,98.094,VALID,-0.016,VALID,19.242,VALID,138.0,VALID,0.0,
2019-04-11, 00:40:06,VALID,917.725,VALID,0.0,VALID,98.2,VALID,0.007,VALID,19.269,VALID,135.0,VALID,0.0,
2019-04-11, 00:41:06,VALID,917.721,VALID,0.0,VALID,98.239,VALID,-0.003,VALID,19.275,VALID,133.0,VALID,0.0,
2019-04-11, 00:42:06,VALID,917.713,VALID,0.0,VALID,98.273,VALID,-0.013,VALID,19.264,VALID,128.0,VALID,0.0,
2019-04-11, 00:43:06,VALID,917.69,VALID,0.0,VALID,98.177,VALID,-0.019,VALID,19.19,VALID,105.0,VALID,0.0,
2019-04-11, 00:44:06,VALID,917.677,VALID,0.0,VALID,98.125,VALID,-0.03,VALID,19.116,VALID,83.0,VALID,0.0,
2019-04-11, 00:45:06,VALID,917.642,VALID,0.0,VALID,97.989,VALID,-0.011,VALID,19.056,VALID,83.0,VALID,0.0,
2019-04-11, 00:46:06,VALID,917.656,VALID,0.0,VALID,98.113,VALID,-0.026,VALID,19.097,VALID,81.0,VALID,0.0,
2019-04-11, 00:47:06,VALID,917.637,VALID,0.0,VALID,98.207,VALID,-0.034,VALID,19.113,VALID,76.0,VALID,0.0,
2019-04-11, 00:48:06,VALID,917.62,VALID,0.0,VALID,98.376,VALID,-0.041,VALID,19.201,VALID,62.0,VALID,0.0,
2019-04-11, 00:49:06,VALID,917.599,VALID,0.0,VALID,98.436,VALID,-0.012,VALID,19.219,VALID,61.0,VALID,0.0,
2019-04-11, 00:50:06,VALID,917.556,VALID,0.0,VALID,98.521,VALID,-0.022,VALID,19.291,VALID,68.0,VALID,0.0,
2019-04-11, 00:51:06,VALID,917.539,VALID,0.0,VALID,98.645,VALID,-0.037,VALID,19.381,VALID,76.0,VALID,0.0,
2019-04-11, 00:52:06,VALID,917.509,VALID,0.0,VALID,98.583,VALID,-0.013,VALID,19.348,VALID,76.0,VALID,0.0,
2019-04-11, 00:53:06,VALID,917.476,VALID,0.0,VALID,98.54,VALID,-0.036,VALID,19.314,VALID,76.0,VALID,0.0,
2019-04-11, 00:54:06,VALID,917.437,VALID,0.0,VALID,98.506,VALID,-0.015,VALID,19.27,VALID,76.0,VALID,0.0,
2019-04-11, 00:55:06,VALID,917.413,VALID,0.0,VALID,98.407,VALID,-0.05,VALID,19.216,VALID,76.0,VALID,0.0,
2019-04-11, 00:56:06,VALID,917.391,VALID,0.0,VALID,98.421,VALID,-0.022,VALID,19.21,VALID,76.0,VALID,0.0,
2019-04-11, 00:57:06,VALID,917.366,VALID,0.0,VALID,98.348,VALID,-0.009,VALID,19.137,VALID,76.0,VALID,0.0,
2019-04-11, 00:58:06,VALID,917.363,VALID,0.0,VALID,98.259,VALID,-0.008,VALID,19.072,VALID,80.0,VALID,0.0,
2019-04-11, 00:59:06,VALID,917.341,VALID,0.0,VALID,98.211,VALID,-0.013,VALID,19.024,VALID,80.0,VALID,0.0,
2019-04-11, 01:00:06,VALID,917.336,VALID,0.0,VALID,98.253,VALID,-0.029,VALID,19.037,VALID,80.0,VALID,0.0,
2019-04-11, 01:01:06,VALID,917.33,VALID,0.0,VALID,98.429,VALID,-0.032,VALID,19.142,VALID,80.0,VALID,0.0,
2019-04-11, 01:02:06,VALID,917.343,VALID,0.0,VALID,98.583,VALID,-0.046,VALID,19.252,VALID,84.0,VALID,0.0,
2019-04-11, 01:03:06,VALID,917.334,VALID,0.0,VALID,98.664,VALID,-0.048,VALID,19.331,VALID,84.0,VALID,0.0,
2019-04-11, 01:04:06,VALID,917.329,VALID,0.0,VALID,98.679,VALID,-0.059,VALID,19.411,VALID,81.0,VALID,0.0,
2019-04-11, 01:05:06,VALID,917.322,VALID,0.0,VALID,98.482,VALID,-0.055,VALID,19.35,VALID,81.0,VALID,0.0,
2019-04-11, 01:06:06,VALID,917.333,VALID,0.0,VALID,98.269,VALID,-0.047,VALID,19.307,VALID,82.0,VALID,0.0,
2019-04-11, 01:07:06,VALID,917.332,VALID,0.0,VALID,98.091,VALID,-0.053,VALID,19.296,VALID,79.0,VALID,0.0,
2019-04-11, 01:08:06,VALID,917.321,VALID,0.0,VALID,97.86,VALID,-0.047,VALID,19.241,VALID,76.0,VALID,0.0,
2019-04-11, 01:09:06,VALID,917.309,VALID,0.0,VALID,97.602,VALID,-0.051,VALID,19.178,VALID,76.0,VALID,0.0,
2019-04-11, 01:10:06,VALID,917.307,VALID,0.0,VALID,97.36,VALID,-0.057,VALID,19.109,VALID,71.0,VALID,0.0,
2019-04-11, 01:11:06,VALID,917.289,VALID,0.0,VALID,97.526,VALID,-0.051,VALID,19.147,VALID,65.0,VALID,0.0,
2019-04-11, 01:12:06,VALID,917.265,VALID,0.0,VALID,97.606,VALID,-0.046,VALID,19.181,VALID,64.0,VALID,0.0,
2019-04-11, 01:13:06,VALID,917.258,VALID,0.0,VALID,97.861,VALID,-0.051,VALID,19.268,VALID,57.0,VALID,0.0,
2019-04-11, 01:14:06,VALID,917.243,VALID,0.0,VALID,97.936,VALID,-0.04,VALID,19.292,VALID,51.0,VALID,0.0,
2019-04-11, 01:15:06,VALID,917.231,VALID,0.0,VALID,97.741,VALID,-0.043,VALID,19.247,VALID,51.0,VALID,0.0,
2019-04-11, 01:16:06,VALID,917.212,VALID,0.0,VALID,97.443,VALID,-0.048,VALID,19.154,VALID,48.0,VALID,0.0,
2019-04-11, 01:17:06,VALID,917.192,VALID,0.0,VALID,97.532,VALID,-0.044,VALID,19.222,VALID,33.0,VALID,0.0,
2019-04-11, 01:18:06,VALID,917.186,VALID,0.0,VALID,97.545,VALID,-0.052,VALID,19.202,VALID,27.0,VALID,0.0,
2019-04-11, 01:19:06,VALID,917.165,VALID,0.0,VALID,97.681,VALID,-0.056,VALID,19.292,VALID,27.0,VALID,0.0,
2019-04-11, 01:20:06,VALID,917.157,VALID,0.0,VALID,97.736,VALID,-0.045,VALID,19.332,VALID,26.0,VALID,0.0,
2019-04-11, 01:21:06,VALID,917.149,VALID,0.0,VALID,97.615,VALID,-0.036,VALID,19.347,VALID,20.0,VALID,0.0,
2019-04-11, 01:22:06,VALID,917.123,VALID,0.0,VALID,97.518,VALID,-0.037,VALID,19.361,VALID,20.0,VALID,0.0,
2019-04-11, 01:23:06,VALID,917.11,VALID,0.0,VALID,97.253,VALID,-0.033,VALID,19.319,VALID,20.0,VALID,0.0,
2019-04-11, 01:24:06,VALID,917.085,VALID,0.0,VALID,97.249,VALID,-0.026,VALID,19.318,VALID,20.0,VALID,0.0,
2019-04-11, 01:25:06,VALID,917.083,VALID,0.0,VALID,97.166,VALID,-0.049,VALID,19.302,VALID,20.0,VALID,0.0,
2019-04-11, 01:26:06,VALID,917.058,VALID,0.0,VALID,97.267,VALID,-0.046,VALID,19.32,VALID,21.0,VALID,0.0,
2019-04-11, 01:27:06,VALID,917.046,VALID,0.0,VALID,97.117,VALID,-0.035,VALID,19.291,VALID,29.0,VALID,0.0,
2019-04-11, 01:28:06,VALID,917.032,VALID,0.0,VALID,97.088,VALID,-0.029,VALID,19.28,VALID,58.0,VALID,0.0,
2019-04-11, 01:29:06,VALID,917.029,VALID,0.0,VALID,97.273,VALID,-0.033,VALID,19.305,VALID,69.0,VALID,0.0,
2019-04-11, 01:30:06,VALID,916.998,VALID,0.0,VALID,97.484,VALID,-0.03,VALID,19.327,VALID,70.0,VALID,0.0,
2019-04-11, 01:31:06,VALID,916.983,VALID,0.0,VALID,97.652,VALID,-0.039,VALID,19.326,VALID,70.0,VALID,0.0,
2019-04-11, 01:32:06,VALID,916.962,VALID,0.0,VALID,97.667,VALID,-0.04,VALID,19.254,VALID,71.0,VALID,0.0,
2019-04-11, 01:33:06,VALID,916.945,VALID,0.0,VALID,97.436,VALID,-0.035,VALID,19.107,VALID,71.0,VALID,0.0,
2019-04-11, 01:34:06,VALID,916.954,VALID,0.0,VALID,97.553,VALID,-0.024,VALID,19.112,VALID,71.0,VALID,0.0,
2019-04-11, 01:35:06,VALID,916.941,VALID,0.0,VALID,97.758,VALID,-0.022,VALID,19.118,VALID,70.0,VALID,0.0,
2019-04-11, 01:36:06,VALID,916.93,VALID,0.0,VALID,97.743,VALID,-0.036,VALID,19.034,VALID,48.0,VALID,0.0,
2019-04-11, 01:37:06,VALID,916.921,VALID,0.0,VALID,97.715,VALID,-0.031,VALID,18.995,VALID,33.0,VALID,0.0,
2019-04-11, 01:38:06,VALID,916.935,VALID,0.0,VALID,97.853,VALID,-0.032,VALID,19.001,VALID,13.0,VALID,0.0,
2019-04-11, 01:39:06,VALID,916.949,VALID,0.0,VALID,97.834,VALID,-0.037,VALID,18.976,VALID,354.0,VALID,0.0,
2019-04-11, 01:40:06,VALID,916.931,VALID,0.0,VALID,98.013,VALID,-0.035,VALID,19.055,VALID,346.0,VALID,0.0,
2019-04-11, 01:41:06,VALID,916.943,VALID,0.0,VALID,98.1,VALID,-0.049,VALID,19.107,VALID,339.0,VALID,0.0,
2019-04-11, 01:42:06,VALID,916.917,VALID,0.0,VALID,98.153,VALID,-0.02,VALID,19.175,VALID,348.0,VALID,0.0,
2019-04-11, 01:43:06,VALID,916.906,VALID,0.0,VALID,98.095,VALID,-0.024,VALID,19.181,VALID,344.0,VALID,0.0,
2019-04-11, 01:44:06,VALID,916.872,VALID,0.0,VALID,97.975,VALID,-0.033,VALID,19.179,VALID,345.0,VALID,0.0,
2019-04-11, 01:45:06,VALID,916.87,VALID,0.0,VALID,97.88,VALID,-0.031,VALID,19.173,VALID,345.0,VALID,0.0,
2019-04-11, 01:46:06,VALID,916.867,VALID,0.0,VALID,97.948,VALID,-0.03,VALID,19.217,VALID,345.0,VALID,0.0,
2019-04-11, 01:47:06,VALID,916.846,VALID,0.0,VALID,98.14,VALID,-0.018,VALID,19.317,VALID,353.0,VALID,0.0,
2019-04-11, 01:48:06,VALID,916.812,VALID,0.0,VALID,98.197,VALID,-0.027,VALID,19.334,VALID,10.0,VALID,0.0,
2019-04-11, 01:49:06,VALID,916.801,VALID,0.0,VALID,98.206,VALID,-0.028,VALID,19.321,VALID,10.0,VALID,0.0,
2019-04-11, 01:50:06,VALID,916.785,VALID,0.0,VALID,98.127,VALID,-0.033,VALID,19.292,VALID,10.0,VALID,0.0,
2019-04-11, 01:51:06,VALID,916.78,VALID,0.0,VALID,98.108,VALID,-0.041,VALID,19.278,VALID,10.0,VALID,0.0,
2019-04-11, 01:52:06,VALID,916.746,VALID,0.0,VALID,98.137,VALID,-0.04,VALID,19.293,VALID,10.0,VALID,0.0,
2019-04-11, 01:53:06,VALID,916.74,VALID,0.0,VALID,98.134,VALID,-0.041,VALID,19.311,VALID,10.0,VALID,0.0,
2019-04-11, 01:54:06,VALID,916.721,VALID,0.0,VALID,98.052,VALID,-0.026,VALID,19.307,VALID,10.0,VALID,0.0,
2019-04-11, 01:55:06,VALID,916.695,VALID,0.0,VALID,97.816,VALID,-0.03,VALID,19.214,VALID,13.0,VALID,0.0,
2019-04-11, 01:56:06,VALID,916.692,VALID,0.0,VALID,97.399,VALID,-0.031,VALID,19.089,VALID,31.0,VALID,0.0,
2019-04-11, 01:57:06,VALID,916.677,VALID,0.0,VALID,97.263,VALID,-0.045,VALID,19.06,VALID,34.0,VALID,0.0,
2019-04-11, 01:58:06,VALID,916.661,VALID,0.0,VALID,97.681,VALID,-0.025,VALID,19.165,VALID,19.0,VALID,0.0,
2019-04-11, 01:59:06,VALID,916.644,VALID,0.0,VALID,97.787,VALID,-0.031,VALID,19.197,VALID,19.0,VALID,0.0,
2019-04-11, 02:00:06,VALID,916.611,VALID,0.0,VALID,97.615,VALID,-0.011,VALID,19.16,VALID,25.0,VALID,0.0,
2019-04-11, 02:01:06,VALID,916.589,VALID,0.0,VALID,97.463,VALID,0.001,VALID,19.149,VALID,30.0,VALID,0.0,
2019-04-11, 02:02:06,VALID,916.601,VALID,0.0,VALID,97.396,VALID,-0.006,VALID,19.125,VALID,34.0,VALID,0.0,
2019-04-11, 02:03:06,VALID,916.584,VALID,0.0,VALID,97.4,VALID,-0.02,VALID,19.109,VALID,34.0,VALID,0.0,
2019-04-11, 02:04:06,VALID,916.593,VALID,0.0,VALID,97.316,VALID,-0.03,VALID,19.065,VALID,40.0,VALID,0.0,
2019-04-11, 02:05:06,VALID,916.614,VALID,0.0,VALID,96.922,VALID,-0.007,VALID,18.957,VALID,116.0,VALID,0.0,
2019-04-11, 02:06:06,VALID,916.612,VALID,0.0,VALID,97.009,VALID,-0.01,VALID,18.939,VALID,145.0,VALID,0.0,
2019-04-11, 02:07:06,VALID,916.621,VALID,0.0,VALID,97.24,VALID,-0.003,VALID,18.945,VALID,145.0,VALID,0.0,
2019-04-11, 02:08:06,VALID,916.588,VALID,0.0,VALID,97.414,VALID,-0.007,VALID,18.939,VALID,134.0,VALID,0.0,
2019-04-11, 02:09:06,VALID,916.577,VALID,0.0,VALID,97.641,VALID,-0.008,VALID,18.96,VALID,122.0,VALID,0.0,
2019-04-11, 02:10:06,VALID,916.592,VALID,0.0,VALID,97.72,VALID,-0.001,VALID,18.96,VALID,122.0,VALID,0.0,
2019-04-11, 02:11:06,VALID,916.596,VALID,0.0,VALID,97.959,VALID,-0.0,VALID,19.021,VALID,122.0,VALID,0.0,
2019-04-11, 02:12:06,VALID,916.61,VALID,0.0,VALID,98.111,VALID,-0.018,VALID,19.084,VALID,123.0,VALID,0.0,
2019-04-11, 02:13:06,VALID,916.602,VALID,0.0,VALID,98.184,VALID,0.002,VALID,19.13,VALID,123.0,VALID,0.0,
2019-04-11, 02:14:06,VALID,916.595,VALID,0.0,VALID,98.242,VALID,-0.003,VALID,19.164,VALID,123.0,VALID,0.0,
2019-04-11, 02:15:06,VALID,916.581,VALID,0.0,VALID,98.253,VALID,0.023,VALID,19.173,VALID,123.0,VALID,0.0,
2019-04-11, 02:16:06,VALID,916.569,VALID,0.0,VALID,98.229,VALID,0.033,VALID,19.162,VALID,123.0,VALID,0.0,
2019-04-11, 02:17:06,VALID,916.583,VALID,0.0,VALID,98.218,VALID,0.032,VALID,19.157,VALID,123.0,VALID,0.0,
2019-04-11, 02:18:06,VALID,916.594,VALID,0.0,VALID,98.195,VALID,0.036,VALID,19.16,VALID,123.0,VALID,0.0,
2019-04-11, 02:19:06,VALID,916.61,VALID,0.0,VALID,98.228,VALID,0.022,VALID,19.191,VALID,123.0,VALID,0.0,
2019-04-11, 02:20:06,VALID,916.652,VALID,0.0,VALID,98.241,VALID,0.028,VALID,19.249,VALID,123.0,VALID,0.0,
2019-04-11, 02:21:06,VALID,916.651,VALID,0.0,VALID,98.055,VALID,0.011,VALID,19.264,VALID,123.0,VALID,0.0,
2019-04-11, 02:22:06,VALID,916.661,VALID,0.0,VALID,97.799,VALID,0.024,VALID,19.239,VALID,124.0,VALID,0.0,
2019-04-11, 02:23:06,VALID,916.661,VALID,0.0,VALID,97.21,VALID,0.025,VALID,19.064,VALID,137.0,VALID,0.0,
2019-04-11, 02:24:06,VALID,916.648,VALID,0.0,VALID,97.023,VALID,0.027,VALID,18.961,VALID,136.0,VALID,0.0,
2019-04-11, 02:25:06,VALID,916.663,VALID,0.0,VALID,97.081,VALID,0.02,VALID,18.907,VALID,127.0,VALID,0.0,
2019-04-11, 02:26:06,VALID,916.654,VALID,0.0,VALID,97.257,VALID,0.036,VALID,18.912,VALID,110.0,VALID,0.0,
2019-04-11, 02:27:06,VALID,916.63,VALID,0.0,VALID,97.504,VALID,0.018,VALID,18.881,VALID,89.0,VALID,0.0,
2019-04-11, 02:28:06,VALID,916.612,VALID,0.0,VALID,97.44,VALID,0.02,VALID,18.804,VALID,62.0,VALID,0.0,
2019-04-11, 02:29:06,VALID,916.589,VALID,0.0,VALID,97.789,VALID,0.034,VALID,18.868,VALID,50.0,VALID,0.0,
2019-04-11, 02:30:06,VALID,916.577,VALID,0.0,VALID,98.083,VALID,-0.012,VALID,18.905,VALID,51.0,VALID,0.0,
2019-04-11, 02:31:06,VALID,916.534,VALID,0.0,VALID,98.192,VALID,-0.015,VALID,18.905,VALID,51.0,VALID,0.0,
2019-04-11, 02:32:06,VALID,916.534,VALID,0.0,VALID,98.249,VALID,-0.029,VALID,18.895,VALID,51.0,VALID,0.0,
2019-04-11, 02:33:06,VALID,916.5,VALID,0.0,VALID,98.4,VALID,-0.039,VALID,18.96,VALID,51.0,VALID,0.0,
2019-04-11, 02:34:06,VALID,916.489,VALID,0.0,VALID,98.452,VALID,-0.039,VALID,18.96,VALID,51.0,VALID,0.0,
2019-04-11, 02:35:06,VALID,916.478,VALID,0.0,VALID,98.53,VALID,-0.041,VALID,19.009,VALID,51.0,VALID,0.0,
2019-04-11, 02:36:06,VALID,916.508,VALID,0.0,VALID,98.581,VALID,-0.043,VALID,19.024,VALID,51.0,VALID,0.0,
2019-04-11, 02:37:06,VALID,916.491,VALID,0.0,VALID,98.501,VALID,-0.04,VALID,18.969,VALID,51.0,VALID,0.0,
2019-04-11, 02:38:06,VALID,916.539,VALID,0.0,VALID,98.528,VALID,-0.041,VALID,18.968,VALID,51.0,VALID,0.0,
2019-04-11, 02:39:06,VALID,916.542,VALID,0.0,VALID,98.519,VALID,-0.029,VALID,18.966,VALID,51.0,VALID,0.0,
2019-04-11, 02:40:06,VALID,916.535,VALID,0.0,VALID,98.47,VALID,-0.043,VALID,18.906,VALID,51.0,VALID,0.0,
2019-04-11, 02:41:06,VALID,916.534,VALID,0.0,VALID,98.382,VALID,-0.052,VALID,18.856,VALID,51.0,VALID,0.0,
2019-04-11, 02:42:06,VALID,916.522,VALID,0.0,VALID,98.323,VALID,-0.045,VALID,18.831,VALID,51.0,VALID,0.0,
2019-04-11, 02:43:06,VALID,916.516,VALID,0.0,VALID,98.322,VALID,-0.048,VALID,18.829,VALID,51.0,VALID,0.0,
2019-04-11, 02:44:06,VALID,916.513,VALID,0.0,VALID,98.362,VALID,-0.043,VALID,18.828,VALID,51.0,VALID,0.0,
2019-04-11, 02:45:06,VALID,916.522,VALID,0.0,VALID,98.355,VALID,-0.031,VALID,18.795,VALID,51.0,VALID,0.0,
2019-04-11, 02:46:06,VALID,916.526,VALID,0.0,VALID,98.331,VALID,-0.022,VALID,18.771,VALID,51.0,VALID,0.0,
2019-04-11, 02:47:06,VALID,916.513,VALID,0.0,VALID,98.36,VALID,-0.038,VALID,18.772,VALID,55.0,VALID,0.0,
2019-04-11, 02:48:06,VALID,916.521,VALID,0.0,VALID,98.403,VALID,-0.033,VALID,18.773,VALID,105.0,VALID,0.0,
2019-04-11, 02:49:06,VALID,916.51,VALID,0.0,VALID,98.482,VALID,-0.044,VALID,18.83,VALID,106.0,VALID,0.0,
2019-04-11, 02:50:06,VALID,916.481,VALID,0.0,VALID,98.626,VALID,-0.04,VALID,18.903,VALID,106.0,VALID,0.0,
2019-04-11, 02:51:06,VALID,916.473,VALID,0.0,VALID,98.627,VALID,-0.055,VALID,18.91,VALID,106.0,VALID,0.0,
2019-04-11, 02:52:06,VALID,916.484,VALID,0.0,VALID,98.657,VALID,-0.032,VALID,18.923,VALID,106.0,VALID,0.0,
2019-04-11, 02:53:06,VALID,916.466,VALID,0.0,VALID,98.707,VALID,-0.045,VALID,18.931,VALID,112.0,VALID,0.0,
2019-04-11, 02:54:06,VALID,916.467,VALID,0.0,VALID,98.686,VALID,-0.04,VALID,18.907,VALID,112.0,VALID,0.0,
2019-04-11, 02:55:06,VALID,916.455,VALID,0.0,VALID,98.689,VALID,-0.055,VALID,18.888,VALID,111.0,VALID,0.0,
2019-04-11, 02:56:06,VALID,916.473,VALID,0.0,VALID,98.678,VALID,-0.06,VALID,18.86,VALID,103.0,VALID,0.0,
2019-04-11, 02:57:06,VALID,916.429,VALID,0.0,VALID,98.665,VALID,-0.059,VALID,18.838,VALID,99.0,VALID,0.0,
2019-04-11, 02:58:06,VALID,916.412,VALID,0.0,VALID,98.678,VALID,-0.032,VALID,18.817,VALID,97.0,VALID,0.0,
2019-04-11, 02:59:06,VALID,916.398,VALID,0.0,VALID,98.691,VALID,-0.03,VALID,18.813,VALID,95.0,VALID,0.0,
2019-04-11, 03:00:06,VALID,916.376,VALID,0.0,VALID,98.689,VALID,0.002,VALID,18.79,VALID,98.0,VALID,0.0,
2019-04-11, 03:01:06,VALID,916.366,VALID,0.0,VALID,98.751,VALID,-0.012,VALID,18.811,VALID,105.0,VALID,0.0,
2019-04-11, 03:02:06,VALID,916.333,VALID,0.0,VALID,98.8,VALID,-0.018,VALID,18.862,VALID,112.0,VALID,0.0,
2019-04-11, 03:03:06,VALID,916.339,VALID,0.0,VALID,98.841,VALID,-0.026,VALID,18.875,VALID,114.0,VALID,0.0,
2019-04-11, 03:04:06,VALID,916.322,VALID,0.0,VALID,98.853,VALID,-0.014,VALID,18.873,VALID,114.0,VALID,0.0,
2019-04-11, 03:05:06,VALID,916.317,VALID,0.0,VALID,98.886,VALID,-0.018,VALID,18.869,VALID,114.0,VALID,0.0,
2019-04-11, 03:06:06,VALID,916.326,VALID,0.0,VALID,98.888,VALID,-0.018,VALID,18.857,VALID,114.0,VALID,0.0,
2019-04-11, 03:07:06,VALID,916.305,VALID,0.0,VALID,98.925,VALID,-0.001,VALID,18.862,VALID,114.0,VALID,0.0,
2019-04-11, 03:08:06,VALID,916.286,VALID,0.0,VALID,98.947,VALID,0.007,VALID,18.859,VALID,114.0,VALID,0.0,
2019-04-11, 03:09:06,VALID,916.261,VALID,0.0,VALID,98.97,VALID,-0.008,VALID,18.844,VALID,114.0,VALID,0.0,
2019-04-11, 03:10:06,VALID,916.245,VALID,0.0,VALID,98.979,VALID,-0.009,VALID,18.819,VALID,114.0,VALID,0.0,
2019-04-11, 03:11:06,VALID,916.25,VALID,0.0,VALID,98.981,VALID,-0.023,VALID,18.806,VALID,108.0,VALID,0.0,
2019-04-11, 03:12:06,VALID,916.253,VALID,0.0,VALID,98.963,VALID,-0.02,VALID,18.761,VALID,105.0,VALID,0.0,
2019-04-11, 03:13:06,VALID,916.261,VALID,0.0,VALID,98.961,VALID,-0.037,VALID,18.751,VALID,105.0,VALID,0.0,
2019-04-11, 03:14:06,VALID,916.265,VALID,0.0,VALID,99.005,VALID,-0.038,VALID,18.784,VALID,109.0,VALID,0.0,
2019-04-11, 03:15:06,VALID,916.254,VALID,0.0,VALID,99.027,VALID,-0.057,VALID,18.785,VALID,118.0,VALID,0.0,
2019-04-11, 03:16:06,VALID,916.269,VALID,0.0,VALID,98.999,VALID,-0.069,VALID,18.765,VALID,125.0,VALID,0.0,
2019-04-11, 03:17:06,VALID,916.267,VALID,0.0,VALID,99.044,VALID,-0.062,VALID,18.776,VALID,127.0,VALID,0.0,
2019-04-11, 03:18:06,VALID,916.273,VALID,0.0,VALID,99.053,VALID,-0.059,VALID,18.78,VALID,120.0,VALID,0.0,
2019-04-11, 03:19:06,VALID,916.29,VALID,0.0,VALID,99.056,VALID,-0.058,VALID,18.778,VALID,122.0,VALID,0.0,
2019-04-11, 03:20:06,VALID,916.317,VALID,0.0,VALID,99.103,VALID,-0.063,VALID,18.805,VALID,119.0,VALID,0.0,
2019-04-11, 03:21:06,VALID,916.321,VALID,0.0,VALID,99.096,VALID,-0.054,VALID,18.842,VALID,116.0,VALID,0.0,
2019-04-11, 03:22:06,VALID,916.317,VALID,0.0,VALID,99.125,VALID,-0.064,VALID,18.86,VALID,105.0,VALID,0.0,
2019-04-11, 03:23:06,VALID,916.311,VALID,0.0,VALID,99.115,VALID,-0.032,VALID,18.86,VALID,105.0,VALID,0.0,
2019-04-11, 03:24:06,VALID,916.295,VALID,0.0,VALID,99.137,VALID,-0.003,VALID,18.881,VALID,106.0,VALID,0.0,
2019-04-11, 03:25:06,VALID,916.283,VALID,0.0,VALID,99.181,VALID,-0.008,VALID,18.905,VALID,106.0,VALID,0.0,
2019-04-11, 03:26:06,VALID,916.289,VALID,0.0,VALID,99.171,VALID,-0.009,VALID,18.916,VALID,106.0,VALID,0.0,
2019-04-11, 03:27:06,VALID,916.297,VALID,0.0,VALID,99.168,VALID,0.002,VALID,18.923,VALID,106.0,VALID,0.0,
2019-04-11, 03:28:06,VALID,916.297,VALID,0.0,VALID,99.207,VALID,0.008,VALID,18.941,VALID,106.0,VALID,0.0,
2019-04-11, 03:29:06,VALID,916.303,VALID,0.0,VALID,99.207,VALID,-0.001,VALID,18.94,VALID,106.0,VALID,0.0,
2019-04-11, 03:30:06,VALID,916.309,VALID,0.0,VALID,99.211,VALID,-0.014,VALID,18.948,VALID,106.0,VALID,0.0,
2019-04-11, 03:31:06,VALID,916.326,VALID,0.0,VALID,99.235,VALID,-0.011,VALID,18.98,VALID,106.0,VALID,0.0,
2019-04-11, 03:32:06,VALID,916.325,VALID,0.0,VALID,99.248,VALID,-0.033,VALID,18.973,VALID,106.0,VALID,0.0,
2019-04-11, 03:33:06,VALID,916.349,VALID,0.0,VALID,99.211,VALID,-0.015,VALID,18.95,VALID,106.0,VALID,0.0,
2019-04-11, 03:34:06,VALID,916.344,VALID,0.0,VALID,99.238,VALID,0.002,VALID,18.976,VALID,106.0,VALID,0.0,
2019-04-11, 03:35:06,VALID,916.348,VALID,0.0,VALID,99.245,VALID,-0.007,VALID,18.939,VALID,106.0,VALID,0.0,
2019-04-11, 03:36:06,VALID,916.364,VALID,0.0,VALID,99.152,VALID,0.001,VALID,18.785,VALID,106.0,VALID,0.0,
2019-04-11, 03:37:06,VALID,916.372,VALID,0.0,VALID,99.157,VALID,-0.013,VALID,18.829,VALID,106.0,VALID,0.0,
2019-04-11, 03:38:06,VALID,916.374,VALID,0.0,VALID,99.222,VALID,-0.028,VALID,18.874,VALID,106.0,VALID,0.0,
2019-04-11, 03:39:06,VALID,916.363,VALID,0.0,VALID,99.199,VALID,0.008,VALID,18.816,VALID,105.0,VALID,0.0,
2019-04-11, 03:40:06,VALID,916.389,VALID,0.0,VALID,99.221,VALID,0.005,VALID,18.853,VALID,105.0,VALID,0.0,
2019-04-11, 03:41:06,VALID,916.389,VALID,0.0,VALID,99.255,VALID,-0.007,VALID,18.845,VALID,106.0,VALID,0.0,
2019-04-11, 03:42:06,VALID,916.398,VALID,0.0,VALID,99.237,VALID,-0.017,VALID,18.85,VALID,106.0,VALID,0.0,